STARLINK-32134, 60300

Orbit data source: Space-Track

STARLINK-32134, 60300 is a payload satellite owned by SpaceX/Seattle (US) in LEO that was launched on Sun, 28 Jul 2024 UTC via an FALCON 9 launch vehicle from the Air Force Eastern Test Range (AFETR). Payload-class satellites include a variety of spacecraft equipped with specific instruments for various scientific and technological missions. These include communications satellites like Starlink; space stations such as the ISS; scientific satellites like the Hubble; Earth observation satellites from companies like Planet Labs, Umbra, and HawkEye 360; GPS; miniature CubeSats for education and research; and military/defense satellites.

Loading next visibility...
Identifier
60300, 2024-132Y
Orbit
LEO
Last TLE update
1 day ago
Origin
Manufacturer
SpaceX/Seattle
Mission
Operational spacecraft
Bus & Motor
STARLINK V2M, Unknown motor
Mass
730 kg wet, ~700 kg dry
Launch date (UTC)
2024-07-28 (9 months ago)
Launch vehicle
FALCON 9
Launch site
Air Force Eastern Test Range (AFETR)
Object type
Payload
Rocket body
Debris
Shape & HBR
Unknown
Radar Cross Section
Large (>1 m²)

Expand to show TLE details & history

TLE from 1 day ago
0 STARLINK-32134
1 60300U 24132Y   25128.95039168  .00001626  00000-0  67036-4 0  9991
2 60300  53.1615  27.8986 0000985  92.0093 268.1020 15.30190937 44901
Epoch: 2025-05-08T22:48Z
Definitive object data (Epoch: 2025-05-08T22:48:33.841Z)
Latitude
-0.00005°
Longitude
178.74402°
Altitude
476.164 km
Speed
7.629 km/s
True Right ascension
01h 51m 35s
True Declination
0° 00' 00"
Sunlit
Object was in daylight at TLE epoch
Visualization TLE readout
Latitude
4.16276°
Longitude
176.6892°
Altitude
475.686 km
Speed
7.629 km/s
Apparent Right ascension
00h 04m 08s
Apparent Declination
-19° 21' 51"
Sunlit
Object is in daylight
Visualization observer readout
Local Sidereal Time
09:40:46
Azimuth
293.172° NW
Elevation
-53.068°
Doppler factor
1
Orbital elements
Apogee altitude
476.173 km
Perigee altitude
474.823 km
Semi-major axis
6,853.635 km
Eccentricity
0.0000985
Inclination
53.1615°
RAAN
27.8986°
Arg. of periapsis
92.0093°
True anomaly
268.09072°
Mean anomaly
268.102°
Eccentric anomaly
268.09636°
Mean motion
3.82527 °/min
BSTAR
0.000067036
Orbital period
94.11 mins
Loading maneuver chart data...
Loading SW <> Apogee altitude chart data...
Loading historical data...
Loading historical data...
Loading historical data...
Loading historical data...
Loading historical data...
Loading historical data...
Loading historical data...

STARLINK-32134 Visibility forecast

Observer location: undefined°, undefined°

Span
Click to sort rows by Start time (UTC) header in descending order
Start Az.
Max El. time (UTC)
Max El. Az.
Max El.
End time (UTC)
End Az.
6 mins2025-05-10 01:55:49.129Z326.617° NNW2025-05-10 01:58:49.129Z35.882° NE31.154°2025-05-10 02:01:49.129Z99.859° ESE
4 mins2025-05-10 03:34:49.129Z270.924° WNW2025-05-10 03:36:49.129Z220.767° SW23.806°2025-05-10 03:38:49.129Z179.192° S
4 mins2025-05-10 18:52:49.129Z178.756° S2025-05-10 18:54:49.129Z116.3° SE28.306°2025-05-10 18:56:49.129Z74.241° E
4 mins2025-05-10 20:30:49.129Z287.336° WNW2025-05-10 20:31:49.129Z313.444° NW26.579°2025-05-10 20:34:49.129Z27.06° NE
|